South Haven, MI

9:13 PM EDT on July 20, 2017 (GMT -0400)
South Haven

Weather History for KLWA - April, 2014

Change the Weather History Date:

Monday, April 7, 2014

  Actual Average (KBEH) Record (KBEH)
Temperature  
Mean Temperature 44 °F -  
Max Temperature 57 °F 54 °F 78 °F (1991)
Min Temperature 31 °F 33 °F 9 °F (1982)
Degree Days  
Heating Degree Days 21    
Moisture  
Dew Point 28 °F    
Average Humidity 62    
Maximum Humidity 86    
Minimum Humidity 28    
Precipitation  
Precipitation 0.00 in - - ()
Sea Level Pressure  
Sea Level Pressure 29.75 in    
Wind  
Wind Speed 3 mph (NE)    
Max Wind Speed 15 mph    
Max Gust Speed 21 mph    
Visibility 10 miles    
Events      
Averages and records for this station are not official NWS values.
T = Trace of Precipitation, MM = Missing Value Source: NWS Daily Summary

Daily Weather History Graph

Daily Weather History Graph

Search for Another Location

Airport or City:

Trip Planner

Search our weather history database for the weather conditions in past years. The results will help you decide how hot, cold, wet, or windy it might be!

Date:

Astronomy

Apr. 07, 2014 Rise Set
Actual Time 7:17 AM EDT 8:17 PM EDT
Civil Twilight 6:48 AM EDT 8:46 PM EDT
Nautical Twilight 6:14 AM EDT 9:20 PM EDT
Astronomical Twilight 5:38 AM EDT 9:56 PM EDT
Moon 1:09 PM EDT (4/7) 2:57 AM EDT (4/7)
Length of Visible Light 13h 57m
Length of Day
13h 00m
First Quarter, 53% of the Moon is Illuminated
Apr 7
First Quarter
Apr 15
Full
Apr 22
Last Quarter
Apr 29
New
May 6
First Quarter

Hourly Weather History & Observations

Time (EDT) Temp. Windchill Dew Point Humidity Pressure Visibility Wind Dir Wind Speed Gust Speed Precip Events Conditions
12:15 AM 37.4 °F - 30.2 °F 75% 29.99 in 10.0 mi Calm Calm - N/A   Clear
12:36 AM 37.0 °F - 30.0 °F 76% 29.98 in 10.0 mi Calm Calm - N/A   Clear
12:55 AM 33.8 °F - 29.3 °F 84% 29.97 in 10.0 mi Calm Calm - N/A   Clear
1:15 AM 33.8 °F - 29.3 °F 84% 29.97 in 10.0 mi Calm Calm - N/A   Clear
1:36 AM 32.9 °F - 28.0 °F 82% 29.97 in 10.0 mi Calm Calm - N/A   Clear
1:55 AM 34.2 °F - 29.1 °F 82% 29.97 in 10.0 mi Calm Calm - N/A   Clear
2:16 AM 32.5 °F - 28.6 °F 85% 29.96 in 10.0 mi Calm Calm - N/A   Clear
2:35 AM 32.5 °F - 28.6 °F 85% 29.95 in 10.0 mi Calm Calm - N/A   Clear
2:55 AM 32.2 °F - 28.2 °F 85% 29.95 in 10.0 mi Calm Calm - N/A   Clear
3:16 AM 32.0 °F - 28.2 °F 86% 29.93 in 10.0 mi Calm Calm - N/A   Clear
3:35 AM 31.8 °F - 27.9 °F 85% 29.92 in 10.0 mi Calm Calm - N/A   Clear
3:56 AM 31.1 °F - 27.1 °F 85% 29.90 in 10.0 mi Calm Calm - N/A   Clear
4:15 AM 33.6 °F 30.6 °F 28.4 °F 81% 29.89 in 10.0 mi East 3.5 mph - N/A   Clear
4:35 AM 32.2 °F - 27.1 °F 82% 29.88 in 10.0 mi Calm Calm - N/A   Clear
4:56 AM 32.2 °F - 26.6 °F 80% 29.88 in 10.0 mi Calm Calm - N/A   Clear
5:15 AM 34.7 °F 30.6 °F 28.2 °F 77% 29.88 in 10.0 mi ESE 4.6 mph - N/A   Clear
5:35 AM 35.2 °F 32.4 °F 28.4 °F 76% 29.86 in 10.0 mi East 3.5 mph - N/A   Clear
5:56 AM 35.6 °F 30.7 °F 28.4 °F 75% 29.84 in 10.0 mi East 5.8 mph - N/A   Clear
6:15 AM 35.6 °F 32.8 °F 28.2 °F 75% 29.85 in 10.0 mi ENE 3.5 mph - N/A   Clear
6:36 AM 35.8 °F 31.9 °F 28.4 °F 75% 29.85 in 10.0 mi East 4.6 mph - N/A   Clear
6:55 AM 36.3 °F 32.5 °F 28.8 °F 74% 29.87 in 10.0 mi East 4.6 mph - N/A   Clear
7:15 AM 36.5 °F 33.9 °F 28.6 °F 73% 29.87 in 10.0 mi East 3.5 mph - N/A   Clear
7:36 AM 36.7 °F 34.1 °F 28.2 °F 71% 29.88 in 10.0 mi East 3.5 mph - N/A   Clear
7:55 AM 36.3 °F - 28.9 °F 75% 29.88 in 10.0 mi Calm Calm - N/A   Clear
8:16 AM 36.5 °F - 28.9 °F 74% 29.88 in 10.0 mi Calm Calm - N/A   Clear
8:35 AM 37.2 °F - 29.3 °F 73% 29.87 in 10.0 mi Calm Calm - N/A   Clear
8:55 AM 38.5 °F 35.0 °F 29.7 °F 71% 29.86 in 10.0 mi East 4.6 mph - N/A   Clear
9:16 AM 39.2 °F 35.0 °F 29.5 °F 68% 29.85 in 10.0 mi East 5.8 mph - N/A   Clear
9:35 AM 38.7 °F 33.6 °F 29.3 °F 69% 29.84 in 10.0 mi East 6.9 mph - N/A   Clear
9:55 AM 39.2 °F 37.0 °F 30.0 °F 70% 29.83 in 10.0 mi East 3.5 mph - N/A   Clear
10:16 AM 39.6 °F 36.3 °F 29.8 °F 68% 29.82 in 10.0 mi ENE 4.6 mph - N/A   Clear
10:35 AM 40.5 °F 37.3 °F 29.7 °F 65% 29.81 in 10.0 mi ENE 4.6 mph - N/A   Scattered Clouds
10:56 AM 41.4 °F 37.6 °F 29.5 °F 63% 29.79 in 10.0 mi ENE 5.8 mph - N/A   Mostly Cloudy
11:15 AM 43.0 °F 38.8 °F 29.8 °F 60% 29.78 in 10.0 mi NE 6.9 mph - N/A   Overcast
11:35 AM 45.1 °F 40.8 °F 29.8 °F 55% 29.76 in 10.0 mi East 8.1 mph - N/A   Mostly Cloudy
11:56 AM 47.3 °F - 29.3 °F 50% 29.75 in 10.0 mi ENE 8.1 mph - N/A   Mostly Cloudy
12:15 PM 50.9 °F - 27.9 °F 41% 29.74 in 10.0 mi NE 9.2 mph - N/A   Scattered Clouds
12:35 PM 52.5 °F - 26.4 °F 36% 29.74 in 10.0 mi ENE 6.9 mph - N/A   Scattered Clouds
12:56 PM 52.7 °F - 25.7 °F 35% 29.73 in 10.0 mi East 10.4 mph - N/A   Scattered Clouds
1:15 PM 53.1 °F - 25.3 °F 34% 29.72 in 10.0 mi East 10.4 mph - N/A   Clear
1:35 PM 53.6 °F - 23.9 °F 32% 29.69 in 10.0 mi NE 10.4 mph 18.4 mph N/A   Clear
1:55 PM 54.0 °F - 24.1 °F 31% 29.68 in 10.0 mi ENE 10.4 mph 16.1 mph N/A   Scattered Clouds
2:15 PM 54.9 °F - 24.6 °F 31% 29.67 in 10.0 mi NE 15.0 mph 18.4 mph N/A   Clear
2:36 PM 55.9 °F - 24.1 °F 29% 29.65 in 10.0 mi NE 15.0 mph 20.7 mph N/A   Clear
2:55 PM 55.6 °F - 23.0 °F 28% 29.65 in 10.0 mi East 11.5 mph 19.6 mph N/A   Clear
3:15 PM 57.0 °F - 24.3 °F 28% 29.64 in 10.0 mi East 11.5 mph - N/A   Mostly Cloudy
3:36 PM 57.0 °F - 24.6 °F 29% 29.62 in 10.0 mi East 9.2 mph - N/A   Mostly Cloudy
4:16 PM 55.8 °F - 22.5 °F 28% 29.62 in 10.0 mi ENE 6.9 mph - N/A   Mostly Cloudy
4:35 PM 55.8 °F - 23.7 °F 29% 29.62 in 10.0 mi ENE 8.1 mph - N/A   Overcast
4:55 PM 55.0 °F - 24.8 °F 31% 29.61 in 10.0 mi ESE 8.1 mph - N/A   Overcast
5:16 PM 54.5 °F - 25.2 °F 32% 29.61 in 10.0 mi ESE 4.6 mph - N/A   Overcast
5:35 PM 54.0 °F - 26.2 °F 34% 29.61 in 10.0 mi East 4.6 mph - N/A   Overcast
5:55 PM 54.0 °F - 25.7 °F 34% 29.60 in 10.0 mi ENE 5.8 mph - N/A   Overcast
6:16 PM 48.4 °F - 30.9 °F 51% 29.60 in 10.0 mi NNW 8.1 mph - N/A   Overcast
6:35 PM 46.4 °F 41.5 °F 29.8 °F 53% 29.60 in 10.0 mi NNW 10.4 mph - N/A   Overcast
6:56 PM 46.0 °F 42.5 °F 29.5 °F 52% 29.60 in 10.0 mi NNW 6.9 mph - N/A   Overcast
7:15 PM 45.0 °F 41.2 °F 29.5 °F 55% 29.60 in 10.0 mi NNW 6.9 mph - N/A   Overcast
7:35 PM 44.2 °F 38.8 °F 28.8 °F 55% 29.60 in 10.0 mi North 10.4 mph - N/A   Overcast
7:56 PM 43.7 °F 38.1 °F 29.1 °F 57% 29.60 in 10.0 mi North 10.4 mph - N/A   Overcast
8:15 PM 42.4 °F 37.0 °F 29.3 °F 60% 29.59 in 10.0 mi North 9.2 mph - N/A   Overcast
8:36 PM 42.1 °F 38.4 °F 29.5 °F 61% 29.59 in 10.0 mi North 5.8 mph - N/A   Overcast
8:55 PM 41.5 °F 36.4 °F 29.7 °F 63% 29.59 in 10.0 mi North 8.1 mph - N/A   Overcast
9:15 PM 41.2 °F 37.3 °F 29.8 °F 64% 29.59 in 10.0 mi North 5.8 mph - N/A   Mostly Cloudy
9:36 PM 41.0 °F 37.1 °F 30.2 °F 65% 29.59 in 10.0 mi NNW 5.8 mph - N/A   Clear
9:55 PM 40.5 °F 38.4 °F 30.2 °F 67% 29.59 in 10.0 mi North 3.5 mph - N/A   Mostly Cloudy
10:15 PM 40.3 °F 36.3 °F 30.7 °F 69% 29.59 in 10.0 mi NNW 5.8 mph - N/A   Overcast
10:36 PM 39.7 °F 35.6 °F 31.1 °F 71% 29.59 in 10.0 mi NNW 5.8 mph - N/A   Overcast
10:55 PM 39.4 °F - 31.1 °F 72% 29.59 in 10.0 mi Calm Calm - N/A   Overcast
11:16 PM 39.4 °F - 31.1 °F 72% 29.58 in 10.0 mi Calm Calm - N/A   Overcast
11:35 PM 39.9 °F - 30.9 °F 70% 29.58 in 10.0 mi Calm Calm - N/A   Overcast
11:55 PM 39.2 °F 37.0 °F 31.5 °F 74% 29.58 in 10.0 mi NW 3.5 mph - N/A   Overcast